Two Harbors, MN

4:27 AM CDT on April 28, 2017 (GMT -0500)
Helgeson

Weather History for KTWM - February, 2013

Change the Weather History Date:

Saturday, February 23, 2013

  Actual Average Record
Temperature  
Mean Temperature 27 °F -  
Max Temperature 35 °F 31 °F 54 °F (1958)
Min Temperature 19 °F 15 °F -20 °F (2015)
Degree Days  
Heating Degree Days 38    
Moisture  
Dew Point 19 °F    
Average Humidity 73    
Maximum Humidity 86    
Minimum Humidity 52    
Precipitation  
Precipitation 0.01 in - - ()
Sea Level Pressure  
Sea Level Pressure 29.78 in    
Wind  
Wind Speed 3 mph (NNW)    
Max Wind Speed 7 mph    
Max Gust Speed -    
Visibility 10 miles    
Events Snow    
Averages and records for this station are not official NWS values.
T = Trace of Precipitation, MM = Missing Value Source: NWS Daily Summary

Daily Weather History Graph

Daily Weather History Graph

Search for Another Location

Airport or City:

Trip Planner

Search our weather history database for the weather conditions in past years. The results will help you decide how hot, cold, wet, or windy it might be!

Date:

Astronomy

Feb. 23, 2013 Rise Set
Actual Time 6:57 AM CST 5:43 PM CST
Civil Twilight 6:26 AM CST 6:14 PM CST
Nautical Twilight 5:51 AM CST 6:50 PM CST
Astronomical Twilight 5:16 AM CST 7:25 PM CST
Moon 3:50 PM CST (2/23) 5:25 AM CST (2/23)
Length of Visible Light 11h 48m
Length of Day
10h 46m
Waxing Gibbous, 95% of the Moon is Illuminated
Feb 23
Waxing Gibbous
Feb 25
Full
Mar 4
Last Quarter
Mar 11
New
Mar 19
First Quarter

Hourly Weather History & Observations

Time (CST) Temp. Windchill Dew Point Humidity Pressure Visibility Wind Dir Wind Speed Gust Speed Precip Events Conditions
12:12 AM 24.8 °F 20.5 °F 19.4 °F 80% 29.78 in 7.0 mi North 3.5 mph - N/A   Overcast
12:31 AM 24.8 °F 20.5 °F 19.4 °F 80% 29.78 in 10.0 mi North 3.5 mph - N/A   Overcast
12:51 AM 24.8 °F 16.9 °F 19.4 °F 80% 29.78 in 10.0 mi NNW 6.9 mph - N/A   Overcast
1:12 AM 24.8 °F 20.5 °F 19.4 °F 80% 29.77 in 10.0 mi NNW 3.5 mph - N/A   Overcast
1:31 AM 24.8 °F 19.1 °F 19.4 °F 80% 29.78 in 10.0 mi NNW 4.6 mph - N/A   Overcast
1:51 AM 24.8 °F 16.9 °F 17.6 °F 74% 29.78 in 10.0 mi NNW 6.9 mph - N/A Snow Light Snow
2:12 AM 24.8 °F 17.9 °F 17.6 °F 74% 29.77 in 10.0 mi NNW 5.8 mph - N/A   Overcast
2:31 AM 24.8 °F 17.9 °F 17.6 °F 74% 29.77 in 10.0 mi North 5.8 mph - N/A Snow Light Snow
2:51 AM 24.8 °F 19.1 °F 17.6 °F 74% 29.77 in 10.0 mi North 4.6 mph - N/A   Overcast
3:12 AM 24.8 °F 17.9 °F 17.6 °F 74% 29.77 in 10.0 mi North 5.8 mph - N/A Snow Light Snow
3:31 AM 24.8 °F 19.1 °F 17.6 °F 74% 29.76 in 10.0 mi North 4.6 mph - N/A Snow Light Snow
3:51 AM 24.8 °F 19.1 °F 17.6 °F 74% 29.76 in 5.0 mi North 4.6 mph - N/A Snow Light Snow
4:11 AM 23.0 °F 17.0 °F 17.6 °F 80% 29.75 in 10.0 mi North 4.6 mph - N/A Snow Light Snow
4:31 AM 23.0 °F 15.8 °F 17.6 °F 80% 29.75 in 10.0 mi NNE 5.8 mph - N/A Snow Light Snow
4:51 AM 23.0 °F 17.0 °F 17.6 °F 80% 29.75 in 10.0 mi North 4.6 mph - N/A   Overcast
5:11 AM 23.0 °F 18.4 °F 17.6 °F 80% 29.76 in 10.0 mi North 3.5 mph - N/A   Overcast
5:31 AM 23.0 °F - 17.6 °F 80% 29.75 in 10.0 mi Calm Calm - N/A   Overcast
5:51 AM 21.2 °F - 17.6 °F 86% 29.75 in 10.0 mi Calm Calm - N/A   Overcast
6:11 AM 21.2 °F - 17.6 °F 86% 29.76 in 10.0 mi Calm Calm - N/A   Overcast
6:31 AM 21.2 °F - 15.8 °F 80% 29.76 in 10.0 mi Calm Calm - N/A   Mostly Cloudy
6:51 AM 19.4 °F - 15.8 °F 86% 29.76 in 10.0 mi Calm Calm - N/A   Scattered Clouds
7:11 AM 19.4 °F 14.3 °F 14.0 °F 80% 29.76 in 10.0 mi NW 3.5 mph - N/A   Clear
7:31 AM 19.4 °F - 14.0 °F 80% 29.76 in 10.0 mi Calm Calm - N/A   Clear
7:51 AM 21.2 °F - 15.8 °F 80% 29.76 in 10.0 mi Calm Calm - N/A   Mostly Cloudy
8:11 AM 21.2 °F - 15.8 °F 80% 29.76 in 10.0 mi Calm Calm - N/A   Overcast
8:51 AM 24.8 °F - 17.6 °F 74% 29.76 in 10.0 mi Calm Calm - 0.01 in   Overcast
9:11 AM 24.8 °F - 17.6 °F 74% 29.77 in 10.0 mi Calm Calm - N/A   Overcast
9:32 AM 24.8 °F - 17.6 °F 74% 29.77 in 10.0 mi Calm Calm - N/A   Overcast
9:51 AM 26.6 °F - 17.6 °F 69% 29.77 in 10.0 mi Calm Calm - N/A   Overcast
10:11 AM 26.6 °F - 19.4 °F 74% 29.77 in 10.0 mi Calm Calm - N/A   Overcast
10:32 AM 28.4 °F - 19.4 °F 69% 29.78 in 10.0 mi Calm Calm - N/A   Overcast
10:51 AM 28.4 °F - 19.4 °F 69% 29.77 in 10.0 mi Calm Calm - N/A   Overcast
11:11 AM 30.2 °F - 21.2 °F 69% 29.77 in 10.0 mi Calm Calm - N/A   Unknown
11:32 AM 30.2 °F - 19.4 °F 64% 29.77 in 10.0 mi Calm Calm - N/A   Unknown
11:51 AM 30.2 °F 26.7 °F 19.4 °F 64% 29.77 in 10.0 mi NW 3.5 mph - N/A   Overcast
12:11 PM 32.0 °F - 19.4 °F 60% 29.76 in 10.0 mi Calm Calm - N/A   Overcast
12:31 PM 32.0 °F 27.5 °F 19.4 °F 60% 29.76 in 10.0 mi WNW 4.6 mph - N/A   Overcast
12:51 PM 32.0 °F - 19.4 °F 60% 29.76 in 10.0 mi Calm Calm - N/A   Overcast
1:12 PM 32.0 °F 27.5 °F 19.4 °F 60% 29.75 in 10.0 mi West 4.6 mph - N/A   Overcast
1:31 PM 33.8 °F 29.6 °F 19.4 °F 56% 29.75 in 10.0 mi NW 4.6 mph - N/A   Overcast
1:51 PM 33.8 °F 30.8 °F 19.4 °F 56% 29.75 in 10.0 mi WSW 3.5 mph - N/A   Overcast
2:11 PM 33.8 °F 27.7 °F 21.2 °F 60% 29.75 in 10.0 mi WSW 6.9 mph - N/A   Overcast
2:31 PM 35.6 °F - 19.4 °F 52% 29.74 in 10.0 mi Calm Calm - N/A   Overcast
2:52 PM 33.8 °F 29.6 °F 19.4 °F 56% 29.74 in 10.0 mi West 4.6 mph - N/A   Overcast
3:11 PM 33.8 °F 29.6 °F 19.4 °F 56% 29.75 in 10.0 mi WNW 4.6 mph - N/A   Overcast
3:31 PM 33.8 °F 28.6 °F 19.4 °F 56% 29.75 in 10.0 mi WNW 5.8 mph - N/A   Overcast
3:52 PM 33.8 °F - 19.4 °F 56% 29.75 in 10.0 mi Calm Calm - N/A   Overcast
4:11 PM 33.8 °F 30.8 °F 19.4 °F 56% 29.75 in 10.0 mi NW 3.5 mph - N/A   Overcast
4:31 PM 33.8 °F 30.8 °F 19.4 °F 56% 29.76 in 10.0 mi WNW 3.5 mph - N/A   Overcast
4:51 PM 33.8 °F - 21.2 °F 60% 29.77 in 10.0 mi Calm Calm - N/A   Overcast
5:11 PM 32.0 °F 25.6 °F 21.2 °F 64% 29.77 in 10.0 mi NW 6.9 mph - N/A   Overcast
5:31 PM 32.0 °F - 21.2 °F 64% 29.77 in 10.0 mi Calm Calm - N/A   Overcast
5:51 PM 32.0 °F - 21.2 °F 64% 29.78 in 10.0 mi Calm Calm - N/A   Overcast
6:12 PM 30.2 °F - 21.2 °F 69% 29.79 in 10.0 mi Calm Calm - N/A   Overcast
6:31 PM 30.2 °F 26.7 °F 21.2 °F 69% 29.80 in 10.0 mi North 3.5 mph - N/A   Overcast
6:51 PM 30.2 °F - 21.2 °F 69% 29.80 in 10.0 mi Calm Calm - N/A   Overcast
7:11 PM 30.2 °F 26.7 °F 21.2 °F 69% 29.81 in 10.0 mi ENE 3.5 mph - N/A   Overcast
7:31 PM 28.4 °F 24.6 °F 23.0 °F 80% 29.82 in 10.0 mi ENE 3.5 mph - N/A   Overcast
7:52 PM 28.4 °F 23.3 °F 24.8 °F 86% 29.82 in 10.0 mi ENE 4.6 mph - N/A   Overcast
8:11 PM 28.4 °F 23.3 °F 23.0 °F 80% 29.83 in 5.0 mi ENE 4.6 mph - N/A   Overcast
8:31 PM 28.4 °F - 23.0 °F 80% 29.83 in 7.0 mi Calm Calm - N/A   Overcast
8:52 PM 28.4 °F - 23.0 °F 80% 29.83 in 7.0 mi Calm Calm - N/A   Overcast
9:11 PM 26.6 °F - 23.0 °F 86% 29.84 in 10.0 mi Calm Calm - N/A   Overcast
9:31 PM 26.6 °F - 23.0 °F 86% 29.84 in 10.0 mi Calm Calm - N/A   Overcast
9:51 PM 26.6 °F - 23.0 °F 86% 29.84 in 10.0 mi Calm Calm - N/A   Overcast
10:11 PM 28.4 °F - 23.0 °F 80% 29.84 in 10.0 mi Calm Calm - N/A   Overcast
10:32 PM 26.6 °F - 21.2 °F 80% 29.85 in 10.0 mi Calm Calm - N/A   Overcast
10:51 PM 26.6 °F - 23.0 °F 86% 29.85 in 10.0 mi Calm Calm - N/A   Overcast
11:11 PM 26.6 °F - 21.2 °F 80% 29.85 in 10.0 mi Calm Calm - N/A   Overcast
11:32 PM 26.6 °F - 21.2 °F 80% 29.86 in 10.0 mi Calm Calm - N/A   Overcast
11:51 PM 26.6 °F - 21.2 °F 80% 29.87 in 10.0 mi Calm Calm - N/A   Overcast